Garrison, ND

11:03 AM CDT on May 24, 2017 (GMT -0500)
Garrison

Weather History for KN60 - December, 2013

Change the Weather History Date:

Friday, December 20, 2013

  Actual Average Record
Temperature  
Mean Temperature -5 °F -  
Max Temperature 4 °F - 48 °F (2004)
Min Temperature -14 °F - -16 °F (2000)
Degree Days  
Heating Degree Days 70    
Month to date heating degree days 1205  
Cooling Degree Days 0    
Moisture  
Dew Point -9 °F    
Average Humidity 83    
Maximum Humidity 92    
Minimum Humidity 74    
Precipitation  
Precipitation 0.00 in - 0.58 in (2010)
Month to date precipitation 1.01  
Year to date precipitation 30.23  
Sea Level Pressure  
Sea Level Pressure 29.99 in    
Wind  
Wind Speed 5 mph (SW)    
Max Wind Speed 13 mph    
Max Gust Speed 14 mph    
T = Trace of Precipitation, MM = Missing Value Source: NWS Daily Summary

Daily Weather History Graph

Daily Weather History Graph

Search for Another Location

Airport or City:

Trip Planner

Search our weather history database for the weather conditions in past years. The results will help you decide how hot, cold, wet, or windy it might be!

Date:

Astronomy

Dec. 20, 2013 Rise Set
Actual Time 8:30 AM CST 4:56 PM CST
Civil Twilight 7:54 AM CST 5:32 PM CST
Nautical Twilight 7:15 AM CST 6:11 PM CST
Astronomical Twilight 6:37 AM CST 6:49 PM CST
Moon 8:31 PM CST (12/20) 10:14 AM CST (12/20)
Length of Visible Light 9h 37m
Length of Day
8h 25m
Waning Gibbous, 90% of the Moon is Illuminated
Dec 20
Waning Gibbous
Dec 25
Last Quarter
Jan 1
New
Jan 7
First Quarter
Jan 15
Full

Hourly Weather History & Observations

Time (CST) Temp. Windchill Dew Point Humidity Pressure Visibility Wind Dir Wind Speed Gust Speed Precip Events Conditions
12:52 AM -13.0 °F - -16.1 °F 86% 30.23 in - Calm Calm - N/A   Unknown
1:52 AM -9.9 °F -21.5 °F -14.1 °F 82% 30.20 in - WSW 4.6 mph - N/A   Unknown
2:52 AM -11.9 °F -21.5 °F -16.1 °F 82% 30.18 in - South 3.5 mph - N/A   Unknown
3:52 AM -11.0 °F -22.8 °F -14.1 °F 86% 30.16 in - SSW 4.6 mph - N/A   Unknown
4:52 AM -9.0 °F -20.4 °F -14.1 °F 79% 30.12 in - South 4.6 mph - N/A   Unknown
5:52 AM -7.1 °F -22.8 °F -13.0 °F 75% 30.09 in - SW 8.1 mph - N/A   Unknown
6:52 AM -9.9 °F -24.9 °F -15.0 °F 78% 30.08 in - SW 6.9 mph - N/A   Unknown
7:52 AM -8.0 °F -19.2 °F -13.0 °F 79% 30.06 in - SSW 4.6 mph - N/A   Unknown
8:52 AM -7.1 °F -22.8 °F -11.9 °F 79% 30.04 in - South 8.1 mph - N/A   Unknown
9:52 AM -5.1 °F -22.5 °F -9.9 °F 80% 30.01 in - SSW 10.4 mph - N/A   Unknown
10:52 AM -2.9 °F -16.5 °F -8.0 °F 79% 30.01 in - SW 6.9 mph - N/A   Unknown
11:52 AM -0.0 °F -7.9 °F -5.1 °F 79% 29.97 in - SW 3.5 mph - N/A   Unknown
12:52 PM 1.9 °F -5.6 °F -2.9 °F 80% 29.94 in - SW 3.5 mph - N/A   Unknown
1:52 PM 1.9 °F -10.6 °F -2.9 °F 80% 29.90 in - SSW 6.9 mph - N/A   Unknown
2:52 PM 1.9 °F -7.6 °F -2.9 °F 80% 29.88 in - SSW 4.6 mph - N/A   Unknown
3:52 PM 3.0 °F -4.4 °F -2.9 °F 76% 29.87 in - South 3.5 mph - N/A   Unknown
4:52 PM 3.0 °F - -2.9 °F 76% 29.88 in - Calm Calm - N/A   Unknown
5:52 PM 3.0 °F - -2.0 °F 80% 29.86 in - Calm Calm - N/A   Unknown
6:52 PM 3.0 °F -4.4 °F -2.0 °F 80% 29.87 in - NNW 3.5 mph - N/A   Unknown
7:52 PM -0.0 °F -11.6 °F -5.1 °F 79% 29.87 in - NNW 5.8 mph - N/A   Unknown
8:52 PM -0.9 °F -8.9 °F -5.1 °F 83% 29.87 in - North 3.5 mph - N/A   Unknown
9:52 PM -6.0 °F -18.6 °F -9.9 °F 83% 29.88 in - North 5.8 mph - N/A   Unknown
10:52 PM -8.0 °F -25.0 °F -11.9 °F 83% 29.89 in - North 9.2 mph - N/A   Unknown
11:52 PM -9.9 °F -24.9 °F -14.1 °F 82% 29.91 in - North 6.9 mph - N/A   Unknown